Location: Newport
(44.6370°N, 124.0520°W)
Time: 16:00:35
(UTC-07:00)

Envisat - Pass Details

Date: 08 October 2017
Orbit: 764 x 766 km, 98.2° (Epoch: 21 October)

Event Time Altitude Azimuth Distance (km) Brightness Sun altitude
Exits shadow 21:01:51 65° 167° (SSE) 844 3.0 -25.2°
Maximum altitude 21:02:39 89° 257° (WSW) 772 2.9 -25.4°
Drops below altitude 10° 21:07:46 10° 347° (NNW) 2,312 5.8 -26.2°
Sets 21:10:04 0° 347° (NNW) 3,243 6.7 -26.6°
